Weather in Agapovka

Russia / Chelyabinsk Oblast     53°18′10″N   59°08′26″E
В апреле 2022 года жителям России запретили посещать сайт meteo.paraplan.net по решению Генеральной прокуратуры. Аудитория сайта уменьшилась в 10 раз. Владельцы сайта не видят смысла в поддержке погодного сервера в таких условиях. Сайт будет закрыт в октябре.
temp.,
°C
wind,
m/s
gust,
m/s
humid.,
%
clouds,
%
prec.,
mm/h
press.,
hPa
HPBL,
m
25 september, sun
sun2523:00+17ssw1142100 0.0 101011
02:00+16nnw0153100 0.4 100911
05:00+15ene0155100 0.3 100910
08:00+15ssw3660100 0.2 1009149
11:00+17ne2369100 0.9 1007139
14:00+17ene61066100 0.0 1005299
17:00+22ese8143675 0.0 1001751
20:00+15wsw797274 0.0 1004678
26 september, mon
mon2623:00+11wsw511751 0.0 1006582
02:00+10wsw7127642 0.0 1006627
05:00+8w6137644 0.0 1007617
08:00+8w6127421 0.0 1007884
11:00+11wnw795613 0.0 10081343
14:00+14w7845100 0.0 10081894
17:00+12wsw886377 0.2 1010835
20:00+10w597298 0.1 1011623
27 september, tue
tue2723:00+8w4779100 0.3 1012377
02:00+7nne3385100 1.3 1013403
05:00+4ne3481100 1.3 1015295
08:00+4ene3379100 0.0 1016343
11:00+4ene3383100 0.0 1017450
14:00+3ene2294100 0.1 1018352
17:00+4ene2186100 0.1 1018344
20:00+4ene3291100 0.0 1020308
28 september, wed
wed2823:00+3ene3396100 0.1 1020387
02:00+3e2296100 0.3 1021366
05:00+3ese2296100 0.3 1021394
08:00+4ese2393100 0.0 1021345
11:00+3ene4396100 1.3 1022392
14:00+2ene4598100 0.7 1023305
17:00+2ne4596100 0.8 1023402
20:00+2ene4691100 0.1 1025471
29 september, thu
thu2923:00+1ne488780 0.2 1026553
02:000ene598095 0.0 1027424
05:00−2ene4883100 0.0 1028323
08:00−2ene5880100 0.0 1029414
11:00+1e5763100 0.0 1029772
14:00+2e5654100 0.0 10281044
17:00+2e5656100 0.0 10291035
20:00+2ene485898 0.0 1030524